User: anonymous   Login
Location: Albany
(35.0000°S, 118.0000°E)
Time: 17:29:09
(UTC-04:00)
Language:

ADEOS Rocket - Orbit

View from above orbital plane
View from above orbital plane
View from above satellite
View from above satellite

Ground track
Ground track

The orbit data is extracted from the following two-line orbital elements,

1 24279U 96046C   16176.97509221 +.00000002 +00000-0 +43997-4 0  9993
2 24279 098.7020 159.9864 0301043 119.6327 306.3519 13.47052501975886
Epoch (UTC): 24 June 2016 23:24:07
Eccentricity: 0.0301043
inclination: 98.7020°
perigee height: 858 km
apogee height: 1308 km
right ascension of ascending node: 159.9864°
argument of perigee: 119.6327°
revolutions per day: 13.47052501
mean anomaly at epoch: 306.3519°
orbit number at epoch: 97588

The dashed part of the orbit path shows where the satellite is in the earth's shadow,  

DLR